DLH824 EDDF-EKCH

Flight info

Callsign DLH824
Flight time N/A
Altitude 37000
Route MARUN6E/07C MARUN Y150 TOLGI DCT SAS DCT MAKEL N851 GESKA Z711 MONAK
Aircraft A320/M-SDE3FGHIRWY/LB1

Departure

Time N/A
Airport Frankfurt Main Airport (EDDF)

Arrival

Time 2026-05-01 07:33
Airport Copenhagen Kastrup Airport (EKCH)
Time Latitude Longitude Altitude Speed Heading
2026-05-01 07:23 55.47216 12.78393 8066 ft 276 kts 30°
2026-05-01 07:23 55.50549 12.81702 7471 ft 274 kts 30°
2026-05-01 07:24 55.52208 12.83349 7188 ft 273 kts 29°
2026-05-01 07:24 55.53857 12.84988 6898 ft 269 kts 29°
2026-05-01 07:24 55.55466 12.86588 6594 ft 262 kts 29°
2026-05-01 07:24 55.57032 12.88147 6289 ft 256 kts 29°
2026-05-01 07:25 55.58549 12.89658 5989 ft 250 kts 28°
2026-05-01 07:25 55.60050 12.91154 5688 ft 245 kts 28°
2026-05-01 07:25 55.61526 12.92630 5347 ft 243 kts 28°
2026-05-01 07:25 55.62992 12.94097 4970 ft 241 kts 27°
2026-05-01 07:26 55.64450 12.95558 4597 ft 241 kts 27°
2026-05-01 07:26 55.65902 12.97017 4225 ft 240 kts 27°
2026-05-01 07:26 55.67346 12.98468 3916 ft 236 kts 27°
2026-05-01 07:26 55.68755 12.99883 3662 ft 231 kts 27°
2026-05-01 07:27 55.70144 13.01273 3424 ft 229 kts 26°
2026-05-01 07:27 55.71535 13.02607 3162 ft 225 kts 19°
2026-05-01 07:27 55.73023 13.02869 3016 ft 211 kts 344°
2026-05-01 07:27 55.74214 13.01626 3006 ft 194 kts 313°
2026-05-01 07:28 55.75053 12.99773 3001 ft 192 kts 307°
2026-05-01 07:28 55.75828 12.97841 3005 ft 192 kts 306°
2026-05-01 07:28 55.76541 12.95830 3010 ft 193 kts 290°
2026-05-01 07:28 55.76633 12.93739 3013 ft 196 kts 263°
2026-05-01 07:29 55.76305 12.91358 3010 ft 198 kts 256°
2026-05-01 07:29 55.75905 12.89042 3007 ft 198 kts 256°
2026-05-01 07:29 55.75320 12.86789 3008 ft 202 kts 234°
2026-05-01 07:29 55.74313 12.85075 3001 ft 202 kts 224°
2026-05-01 07:30 55.73269 12.83457 2834 ft 197 kts 224°
2026-05-01 07:30 55.72240 12.81855 2592 ft 197 kts 225°
2026-05-01 07:30 55.71207 12.80244 2343 ft 198 kts 225°
2026-05-01 07:30 55.70183 12.78647 2110 ft 194 kts 225°
2026-05-01 07:31 55.69179 12.77083 1810 ft 190 kts 225°
2026-05-01 07:31 55.66415 12.72785 1109 ft 154 kts 225°
2026-05-01 07:32 55.64954 12.70512 705 ft 131 kts 224°
2026-05-01 07:32 55.64275 12.69457 526 ft 128 kts 224°
2026-05-01 07:33 55.62945 12.67391 173 ft 126 kts 223°
2026-05-01 07:33 55.62291 12.66373 30 ft 120 kts 223°
2026-05-01 07:33 55.61470 12.65095 23 ft 45 kts 221°
2026-05-01 07:34 55.61280 12.64719 25 ft 39 kts 246°
2026-05-01 07:34 55.61208 12.64137 24 ft 17 kts 315°
2026-05-01 07:34 55.61317 12.64151 25 ft 18 kts 33°
2026-05-01 07:35 55.61425 12.64276 24 ft 20 kts 33°
2026-05-01 07:35 55.61549 12.64419 24 ft 23 kts 33°
2026-05-01 07:35 55.61693 12.64583 25 ft 26 kts 32°
2026-05-01 07:35 55.61854 12.64767 24 ft 29 kts 33°
2026-05-01 07:36 55.62031 12.64970 26 ft 31 kts 33°
2026-05-01 07:36 55.62190 12.65155 24 ft 15 kts 33°
2026-05-01 07:36 55.62269 12.65100 25 ft 16 kts 302°
2026-05-01 07:36 55.62336 12.64918 24 ft 19 kts 303°
2026-05-01 07:37 55.62505 12.64460 24 ft 25 kts 303°
2026-05-01 07:37 55.62605 12.64190 24 ft 27 kts 303°
2026-05-01 07:37 55.62678 12.63996 24 ft 12 kts 309°
2026-05-01 07:38 55.62741 12.64036 25 ft 8 kts 33°
2026-05-01 07:38 55.62746 12.64042 24 ft 0 kts 33°